Location: Avenches
(46.8809°N, 7.0410°E)
Time: 07:09:33
(UTC+00:00)

ISS - Visible Passes

Search period start: 04 March 2021 00:00
Search period end: 14 March 2021 00:00
Orbit: 417 x 422 km, 51.6° (Epoch: 04 March)

Date Brightness Start Highest point End Pass type
(mag) Time Alt. Az. Time Alt. Az. Time Alt. Az.
04 Mar -0.5 03:09:46 14° ENE 03:09:46 14° ENE 03:10:24 10° ENE visible
04 Mar -2.6 04:42:44 21° NW 04:44:26 36° N 04:47:35 10° ENE visible
05 Mar -2.4 03:57:03 34° NNE 03:57:03 34° NNE 03:59:57 10° ENE visible
05 Mar -3.5 05:30:38 10° WNW 05:34:00 66° NNE 05:37:20 10° ESE visible
06 Mar -0.8 03:11:24 17° ENE 03:11:24 17° ENE 03:12:21 10° ENE visible
06 Mar -3.1 04:44:21 20° NW 04:46:27 50° NNE 04:49:45 10° E visible
07 Mar -2.8 03:58:44 41° N 03:58:52 41° NNE 04:02:06 10° E visible
08 Mar -1.0 03:13:10 20° ENE 03:13:10 20° ENE 03:14:26 10° ENE visible
08 Mar -3.8 04:46:08 20° WNW 04:48:20 89° SW 04:51:42 10° ESE visible
09 Mar -3.6 04:00:38 64° N 04:00:50 66° NNE 04:04:10 10° ESE visible
10 Mar -1.2 03:15:14 21° E 03:15:14 21° E 03:16:33 10° E visible
10 Mar -3.2 04:48:13 21° W 04:50:01 39° SW 04:53:11 10° SE visible
11 Mar -3.6 04:02:56 56° S 04:02:56 56° S 04:05:54 10° SE visible
12 Mar -1.0 03:17:47 15° ESE 03:17:47 15° ESE 03:18:28 10° ESE visible
12 Mar -2.0 04:50:47 16° WSW 04:51:30 17° SW 04:53:43 10° S visible
13 Mar -1.7 04:05:50 17° S 04:05:50 17° S 04:06:59 10° SSE visible
